Home > Weather > Melhus > Past weeks

Flag for Norway Weather for the Past 2 Weeks in Melhus, Norway

Now
32 °F

Sunny.


Feels Like: 22 °F
Forecast: 16 / 30 °F
Wind: 13 mph from Northwest

Location: Trondheim / Vaernes

Current Time: Feb 11, 2016 at 3:10:18 PM

Latest Report: Feb 11, 2016 at 2:20 PM


Visibility: 10 mi

Pressure: 29.65 "Hg

Humidity: 69%

Dew point: 23 °F

Location of MelhusLocation

Historic Weather in Melhus — Graph

°F

Melhus Temperature Yesterday

Maximum temperature yesterday: 32 °F (at 3:20 PM)
Minimum temperature yesterday: 25 °F (at 4:50 AM)
Average temperature yesterday: 28 °F

High & Low Weather Summary for the Past Weeks

 TemperatureHumidityPressure
High46 °F (Jan 29, 5:20 PM)100% (Jan 27, 6:20 PM)29.80 "Hg (Jan 27, 6:20 PM)
Low23 °F (Feb 2, 5:50 PM)46% (Jan 29, 8:50 PM)28.35 "Hg (Jan 29, 9:20 PM)
Average35 °F77%29.11 "Hg
* Reported Jan 27 1:20 PM — Feb 11 1:50 PM, Melhus, Weather by CustomWeather, © 2016

Note: Actual official high and low records may vary slightly from our data, if they occured in-between our weather recording intervals... More about our weather records

Advertising

Melhus Weather History for the Previous 24 Hours

 ConditionsComfort  
Time TempWeatherWind HumidityBarometerVisibility
1:50 PM
Thu, Feb 11
32 °FSunny.14 mph69%29.65 "Hg10 mi
1:20 PM32 °FSunny.14 mph69%29.65 "Hg10 mi
12:50 PM32 °FSunny.15 mph69%29.62 "Hg10 mi
12:20 PM32 °FSunny.15 mph69%29.62 "Hg10 mi
11:50 AM32 °FSunny.13 mph69%29.62 "Hg10 mi
11:20 AM32 °FSunny.15 mph64%29.62 "Hg10 mi
10:50 AM32 °FScattered clouds.15 mph64%29.62 "HgN/A
10:20 AM32 °FSunny.14 mph64%29.59 "Hg10 mi
9:50 AM32 °FPassing clouds.14 mph64%29.59 "HgN/A
9:20 AM32 °FScattered clouds.12 mph69%29.59 "HgN/A
8:50 AM32 °FScattered clouds.5 mph69%29.59 "HgN/A
8:20 AM32 °FPassing clouds.9 mph75%29.56 "HgN/A
7:50 AM32 °FPassing clouds.9 mph69%29.56 "HgN/A
7:20 AM32 °FPassing clouds.7 mph75%29.56 "HgN/A
6:50 AM32 °FPassing clouds.6 mph69%29.53 "HgN/A
6:20 AM32 °FPassing clouds.9 mph75%29.53 "HgN/A
5:50 AM32 °FPassing clouds.12 mph75%29.53 "HgN/A
5:20 AM32 °FPassing clouds.7 mph75%29.50 "HgN/A
4:50 AM34 °FPassing clouds.12 mph70%29.50 "HgN/A
3:50 AM34 °FPassing clouds.9 mph70%29.47 "HgN/A
2:50 AM32 °FPassing clouds.15 mph75%29.47 "HgN/A
1:50 AM32 °FLight snow. Passing clouds.10 mph75%29.45 "HgN/A
1:20 AM30 °FPassing clouds.9 mph80%29.45 "HgN/A
12:50 AM32 °FPassing clouds.10 mph80%29.42 "HgN/A
11:50 PM
Wed, Feb 10
30 °FPassing clouds.12 mph80%29.42 "HgN/A
10:50 PM27 °FPassing clouds.9 mph86%29.39 "HgN/A
9:50 PM27 °FClear.10 mph86%29.36 "Hg10 mi
9:20 PM27 °FPassing clouds.8 mph93%29.36 "HgN/A
8:50 PM28 °FPassing clouds.3 mph86%29.36 "HgN/A
8:20 PM30 °FPartly cloudy.6 mph86%29.36 "HgN/A
7:50 PM30 °FPartly cloudy.1 mph86%29.36 "HgN/A
7:20 PM30 °FPartly cloudy.9 mph86%29.33 "HgN/A
6:50 PM30 °FPartly cloudy.10 mph93%29.33 "HgN/A
6:20 PM30 °FPartly cloudy.9 mph93%29.33 "HgN/A
5:50 PM32 °FPartly cloudy.2 mph93%29.30 "HgN/A
5:20 PM32 °FPartly cloudy.1 mph93%29.30 "HgN/A
4:50 PM32 °FPartly cloudy.1 mph93%29.30 "HgN/A
4:20 PM32 °FBroken clouds.2 mph93%29.27 "HgN/A
3:50 PM32 °FBroken clouds.3 mph93%29.27 "HgN/A
3:20 PM32 °FBroken clouds.1 mph87%29.27 "HgN/A
Weather by CustomWeather, © 2016

See weather overviewHow to use our weather pages